COSMOS 1928

Satellite information

Favourite Embed

Satellite Type and Status

PAYLOADIN ORBIT

Key statistics

Satellite COSMOS 1928 at a glance.

Uptime

13751

Days in orbit

Revolutions

≈ 12.5

Per day

Orbit

LEO

Low Earth Orbit

Inclination

74.0

Latest

Satellite identification and parameters

Extended collection of information and parameters for COSMOS 1928.

Object identification

Identified? True

Debris? False

Object name: COSMOS 1928

International designator: 1988-016E

Object number (NORAD): 18941

Object ID (CCSDS): 18941

Country: COMMONWEALTH OF INDEPENDENT STATES (CIS)

Current information (Y/N): Y

RCS size: MEDIUM

Orbital parameters

Period: 114.934 minutes

Inclination: 74.0024 deg

SMA: 7830.568 km

Apoapsis: 1461.104 km

Periapsis: 1443.761 km

RAAN: 146.2009 deg

Eccentricy: 0.0011074

Argument of periapsis: 206.7607 deg

Mean anomaly: 178.5376 deg

Mean motion: 12.5288982 rev/day

Mean motion (dot): 0.00000016 rev/day2

B* drag term: 0.00020431 1/REarth

Two-line elements (TLE)

Creation date: Nov. 2, 2025, 4:06 p.m.

Reference frame: TEME

Reference center: EARTH

Epoch: Nov. 2, 2025, 12:30 p.m. UTC

TLE line 0: 0 COSMOS 1928

TLE line 1: 1 18941U 88016E 25306.52107274 .00000016 00000-0 20431-3 0 9990

TLE line 2: 2 18941 74.0024 146.2009 0011074 206.7607 178.5376 12.52889820628485

Live tracking on map

Real-time ground track for satellite COSMOS 1928.

In-orbit conjunctions

There are no conjunctions computed for COSMOS 1928, at the moment. Check back to stay up to date, as we update our databases every day.

Go to all conjunctions

Associated space launch

Military communications satellites

COSMOS 1928 was lifted into orbit during the mission ‘Kosmos-3M | Strela-1M 329-336’, on board a Kosmos-3M space rocket.

The launch took place on March 11, 1988, 12:18 a.m. from 132/1 (132L).

For more information about the launch, click the button.

Launch to space Kosmos-3M | Strela-1M 329-336
Kosmos-3M | Strela-1M 329-336

Agency: N/A

Status: Launch Successful

Launch date: March 11, 1988, 12:18 a.m. UTC

Rocket: Kosmos-3M

Launch pad: 132/1 (132L)

Location: Plesetsk Cosmodrome, Russian Federation

...

Latest news about this satellite

There are no fresh news available about this satellite. Check back as we update our databases every day.


Newsletter sign-up

Weekly statistics, charts and insights to help you stay on top of the space industry.